Location: Zagreb
(45.8000°N, 16.0000°E)
Time: 01:10:03
(UTC+02:00)

Transit 2A Rocket - Pass Details

Date: 29 January 2022
Orbit: 592 x 909 km, 66.7° (Epoch: 26 May)

Event Time Altitude Azimuth Distance (km) Brightness Sun altitude
Rises 18:08:38 0° 218° (SW) 3,485 9.3 -12.6°
Reaches altitude 10° 18:11:07 10° 221° (SW) 2,569 8.5 -13.0°
Maximum altitude 18:17:09 71° 305° (NW) 961 5.6 -14.0°
Drops below altitude 10° 18:23:13 10° 30° (NNE) 2,582 7.4 -15.1°
Enters shadow 18:23:44 - 31° (NNE) 2,769 7.5 -15.1°
Sets 18:25:43 0° 33° (NNE) 3,503 - -15.5°
